| time (UTC) | temp C | wind direction | speed KPH | gust KPH | rain 1hr cm | rain 24hr cm | rain mn cm | humidity % | barometer mb |
| 20260903050224 | 11 | 124 | 0.0 | 0.0 | 0.18 | 0.13 | 0.13 | 93 | 1008.1 |
| 20260903045720 | 11 | 124 | 0.0 | 0.0 | 0.18 | 0.13 | 0.13 | 93 | 1008.3 |
| 20260903045216 | 12 | 124 | 0.0 | 0.0 | 0.00 | 0.10 | 0.10 | 93 | 1008.3 |
| 20260903044712 | 12 | 140 | 0.0 | 0.0 | 0.00 | 0.10 | 0.10 | 93 | 1008.3 |
| 20260903044207 | 12 | 139 | 0.0 | 0.0 | 0.00 | 0.10 | 0.10 | 92 | 1008.4 |
| 20260903043704 | 12 | 139 | 0.0 | 0.0 | 0.00 | 0.10 | 0.10 | 92 | 1008.1 |
| 20260903043203 | 12 | 150 | 0.0 | 0.0 | 0.00 | 0.10 | 0.10 | 92 | 1008.3 |
| 20260903042702 | 12 | 147 | 0.0 | 0.0 | 0.00 | 0.10 | 0.10 | 91 | 1008.2 |
| 20260903042157 | 12 | 148 | 1.6 | 1.6 | 0.00 | 0.10 | 0.10 | 90 | 1008.2 |
| 20260903041654 | 12 | 160 | 1.6 | 1.6 | 0.13 | 0.10 | 0.10 | 87 | 1008.3 |
| 20260903041149 | 12 | 157 | 3.2 | 3.2 | 0.13 | 0.10 | 0.10 | 87 | 1007.9 |
| 20260903040649 | 12 | 146 | 0.0 | 0.0 | 0.00 | 0.08 | 0.08 | 85 | 1008.0 |
| 20260903040144 | 12 | 159 | 0.0 | 0.0 | 0.00 | 0.08 | 0.08 | 85 | 1008.1 |
| 20260903035639 | 12 | 142 | 0.0 | 0.0 | 0.00 | 0.08 | 0.08 | 83 | 1008.0 |
| 20260903035130 | 12 | 174 | 3.2 | 3.2 | 0.00 | 0.08 | 0.08 | 83 | 1007.9 |
| 20260903034629 | 12 | 167 | 3.2 | 3.2 | 0.00 | 0.08 | 0.08 | 83 | 1007.9 |
| 20260903034119 | 13 | 138 | 0.0 | 1.6 | 0.00 | 0.08 | 0.08 | 80 | 1007.9 |
| 20260903033615 | 13 | 156 | 0.0 | 0.0 | 0.00 | 0.08 | 0.08 | 78 | 1007.9 |
| 20260903033109 | 13 | 213 | 6.4 | 9.7 | 0.18 | 0.08 | 0.08 | 74 | 1007.9 |
| 20260903032604 | 13 | 200 | 3.2 | 3.2 | 0.18 | 0.08 | 0.08 | 76 | 1008.0 |
| 20260903032059 | 13 | 168 | 4.8 | 6.4 | 0.00 | 0.05 | 0.05 | 74 | 1007.9 |
| 20260903031554 | 13 | 151 | 6.4 | 9.7 | 0.00 | 0.05 | 0.05 | 76 | 1007.9 |
| 20260903031049 | 13 | 146 | 1.6 | 3.2 | 0.00 | 0.05 | 0.05 | 85 | 1008.0 |
| 20260903030544 | 13 | 138 | 0.0 | 0.0 | 0.00 | 0.05 | 0.05 | 87 | 1007.8 |
| 20260903030041 | 13 | 148 | 0.0 | 0.0 | 0.00 | 0.05 | 0.05 | 88 | 1007.4 |
| 20260903025536 | 13 | 155 | 0.0 | 1.6 | 0.00 | 0.05 | 0.05 | 87 | 1007.8 |
| 20260903025032 | 13 | 129 | 0.0 | 0.0 | 0.00 | 0.05 | 0.05 | 87 | 1007.9 |
| 20260903024531 | 13 | 144 | 0.0 | 1.6 | 0.00 | 0.05 | 0.05 | 88 | 1007.7 |
| 20260903024026 | 13 | 139 | 1.6 | 1.6 | 0.00 | 0.05 | 0.05 | 87 | 1007.7 |
| 20260903023521 | 13 | 134 | 0.0 | 0.0 | 0.00 | 0.05 | 0.05 | 88 | 1007.8 |
| 20260903023017 | 13 | 143 | 0.0 | 0.0 | 0.00 | 0.05 | 0.05 | 88 | 1007.8 |
| 20260903022516 | 13 | 120 | 0.0 | 0.0 | 0.00 | 0.05 | 0.05 | 87 | 1007.4 |
| 20260903022014 | 13 | 123 | 0.0 | 0.0 | 0.00 | 0.05 | 0.05 | 86 | 1007.2 |
| 20260903021509 | 13 | 127 | 1.6 | 1.6 | 0.00 | 0.05 | 0.05 | 85 | 1007.2 |
| 20260903021004 | 13 | 77 | 1.6 | 3.2 | 0.18 | 0.05 | 0.05 | 82 | 1007.5 |
| 20260903020459 | 14 | 170 | 1.6 | 1.6 | 0.30 | 0.05 | 0.05 | 82 | 1007.5 |
| 20260903015954 | 15 | 87 | 1.6 | 3.2 | 0.13 | 0.03 | 0.03 | 81 | 1007.4 |
| 20260903015450 | 15 | 172 | 3.2 | 4.8 | 0.00 | 0.00 | 0.00 | 76 | 1007.3 |
| 20260903014944 | 15 | 154 | 1.6 | 1.6 | 0.00 | 0.00 | 0.00 | 72 | 1007.2 |
| 20260903014443 | 16 | 130 | 0.0 | 0.0 | 0.00 | 0.00 | 0.00 | 69 | 1007.1 |
| 20260903013938 | 16 | 146 | 0.0 | 0.0 | 0.00 | 0.00 | 0.00 | 66 | 1007.2 |
| 20260903013433 | 16 | 148 | 0.0 | 0.0 | 0.00 | 0.00 | 0.00 | 61 | 1007.2 |
| 20260903012932 | 16 | 210 | 0.0 | 1.6 | 0.00 | 0.00 | 0.00 | 59 | 1007.0 |
| 20260903012432 | 17 | 167 | 1.6 | 3.2 | 0.00 | 0.00 | 0.00 | 57 | 1006.9 |
| 20260903011930 | 17 | 163 | 1.6 | 3.2 | 0.00 | 0.00 | 0.00 | 53 | 1006.9 |
| 20260903011426 | 18 | 252 | 6.4 | 9.7 | 0.00 | 0.00 | 0.00 | 51 | 1006.8 |
| 20260903010920 | 18 | 265 | 9.7 | 11.3 | 0.00 | 0.00 | 0.00 | 48 | 1006.4 |
| 20260903010416 | 18 | 205 | 4.8 | 4.8 | 0.00 | 0.00 | 0.00 | 48 | 1006.7 |
| 20260903005913 | 18 | 263 | 8.0 | 9.7 | 0.00 | 0.00 | 0.00 | 47 | 1006.4 |
| 20260903005409 | 18 | 280 | 9.7 | 11.3 | 0.00 | 0.00 | 0.00 | 47 | 1006.1 |
| 20260903004906 | 18 | 264 | 11.3 | 14.5 | 0.00 | 0.00 | 0.00 | 47 | 1006.2 |
| 20260903004401 | 18 | 249 | 8.0 | 11.3 | 0.00 | 0.00 | 0.00 | 46 | 1006.2 |
| 20260903003856 | 19 | 275 | 6.4 | 9.7 | 0.00 | 0.00 | 0.00 | 45 | 1006.4 |
| 20260903003350 | 19 | 306 | 6.4 | 6.4 | 0.00 | 0.00 | 0.00 | 44 | 1005.9 |
| 20260903002850 | 19 | 258 | 9.7 | 11.3 | 0.00 | 0.00 | 0.00 | 43 | 1006.0 |
| 20260903002345 | 20 | 272 | 9.7 | 11.3 | 0.00 | 0.00 | 0.00 | 43 | 1005.9 |
| 20260903001840 | 20 | 240 | 9.7 | 12.9 | 0.00 | 0.00 | 0.00 | 42 | 1006.0 |
| 20260903001335 | 20 | 282 | 6.4 | 9.7 | 0.00 | 0.00 | 0.00 | 41 | 1005.7 |
| 20260903000835 | 20 | 180 | 6.4 | 6.4 | 0.00 | 0.00 | 0.00 | 41 | 1005.5 |
| 20260903000332 | 20 | 287 | 3.2 | 3.2 | 0.00 | 0.00 | 0.00 | 42 | 1005.7 |
| 20260902235828 | 20 | 228 | 6.4 | 9.7 | 0.00 | 0.00 | 0.00 | 42 | 1005.7 |
| 20260902235323 | 20 | 205 | 6.4 | 6.4 | 0.00 | 0.00 | 0.00 | 42 | 1005.6 |
| 20260902234818 | 20 | 205 | 3.2 | 4.8 | 0.00 | 0.00 | 0.00 | 42 | 1005.2 |
| 20260902234317 | 20 | 192 | 3.2 | 4.8 | 0.00 | 0.00 | 0.00 | 42 | 1005.2 |
| 20260902233816 | 20 | 224 | 8.0 | 9.7 | 0.00 | 0.00 | 0.00 | 40 | 1005.3 |
| 20260902233311 | 20 | 288 | 4.8 | 6.4 | 0.00 | 0.00 | 0.00 | 41 | 1005.2 |
| 20260902232809 | 20 | 251 | 14.5 | 16.1 | 0.00 | 0.00 | 0.00 | 39 | 1005.2 |
| 20260902232310 | 20 | 277 | 11.3 | 14.5 | 0.00 | 0.00 | 0.00 | 41 | 1005.2 |
| 20260902231809 | 20 | 279 | 14.5 | 17.7 | 0.00 | 0.00 | 0.00 | 41 | 1005.5 |
| 20260902231304 | 20 | 262 | 14.5 | 16.1 | 0.00 | 0.00 | 0.00 | 40 | 1005.6 |
| 20260902230759 | 21 | 238 | 8.0 | 9.7 | 0.00 | 0.00 | 0.00 | 40 | 1005.3 |
| 20260902230258 | 21 | 236 | 8.0 | 11.3 | 0.00 | 0.00 | 0.00 | 39 | 1005.8 |
| 20260902225753 | 21 | 271 | 8.0 | 11.3 | 0.00 | 0.00 | 0.00 | 39 | 1005.1 |
| 20260902225248 | 21 | 273 | 3.2 | 4.8 | 0.00 | 0.00 | 0.00 | 38 | 1005.4 |
| 20260902224746 | 21 | 319 | 9.7 | 12.9 | 0.00 | 0.00 | 0.00 | 39 | 1005.2 |
| 20260902224242 | 21 | 212 | 11.3 | 14.5 | 0.00 | 0.00 | 0.00 | 39 | 1004.9 |
| 20260902223738 | 21 | 290 | 8.0 | 9.7 | 0.00 | 0.00 | 0.00 | 40 | 1004.9 |
| 20260902223237 | 21 | 236 | 12.9 | 16.1 | 0.00 | 0.00 | 0.00 | 37 | 1004.7 |
| 20260902222736 | 21 | 163 | 3.2 | 4.8 | 0.00 | 0.00 | 0.00 | 39 | 1004.8 |
| 20260902222231 | 21 | 152 | 0.0 | 0.0 | 0.00 | 0.00 | 0.00 | 39 | 1004.7 |
| 20260902221725 | 21 | 176 | 3.2 | 3.2 | 0.00 | 0.00 | 0.00 | 38 | 1004.6 |
| 20260902221219 | 21 | 152 | 1.6 | 3.2 | 0.00 | 0.00 | 0.00 | 38 | 1004.6 |
| 20260902220714 | 21 | 141 | 3.2 | 4.8 | 0.00 | 0.00 | 0.00 | 38 | 1004.7 |
| 20260902220214 | 21 | 174 | 8.0 | 12.9 | 0.00 | 0.00 | 0.00 | 38 | 1004.8 |
| 20260902215710 | 22 | 165 | 1.6 | 1.6 | 0.00 | 0.00 | 0.00 | 37 | 1004.8 |
| 20260902215205 | 23 | 139 | 0.0 | 1.6 | 0.00 | 0.00 | 0.00 | 37 | 1004.7 |
| 20260902214701 | 22 | 175 | 1.6 | 1.6 | 0.00 | 0.00 | 0.00 | 37 | 1005.2 |
| 20260902214159 | 22 | 175 | 4.8 | 4.8 | 0.00 | 0.00 | 0.00 | 39 | 1005.4 |
| 20260902213655 | 21 | 204 | 6.4 | 9.7 | 0.00 | 0.00 | 0.00 | 39 | 1005.3 |
| 20260902213149 | 21 | 147 | 4.8 | 4.8 | 0.00 | 0.00 | 0.00 | 39 | 1005.4 |
| 20260902212644 | 21 | 138 | 1.6 | 3.2 | 0.00 | 0.00 | 0.00 | 40 | 1005.6 |
| 20260902212141 | 21 | 173 | 1.6 | 1.6 | 0.00 | 0.00 | 0.00 | 39 | 1005.5 |
| 20260902211636 | 21 | 222 | 6.4 | 9.7 | 0.00 | 0.00 | 0.00 | 39 | 1005.4 |
| 20260902211131 | 21 | 148 | 1.6 | 3.2 | 0.00 | 0.00 | 0.00 | 39 | 1005.3 |
| 20260902210631 | 21 | 173 | 3.2 | 3.2 | 0.00 | 0.00 | 0.00 | 40 | 1005.5 |
| 20260902210126 | 21 | 162 | 1.6 | 1.6 | 0.00 | 0.00 | 0.00 | 39 | 1005.4 |
| 20260902205624 | 20 | 179 | 3.2 | 4.8 | 0.00 | 0.00 | 0.00 | 41 | 1005.3 |
| 20260902205120 | 20 | 168 | 1.6 | 1.6 | 0.00 | 0.00 | 0.00 | 42 | 1005.4 |
| 20260902204615 | 20 | 144 | 1.6 | 1.6 | 0.00 | 0.00 | 0.00 | 43 | 1005.6 |
| 20260902204109 | 20 | 152 | 0.0 | 1.6 | 0.00 | 0.00 | 0.00 | 42 | 1005.6 |
| 20260902203605 | 20 | 141 | 0.0 | 0.0 | 0.00 | 0.00 | 0.00 | 42 | 1005.4 |
| 20260902203104 | 20 | 184 | 1.6 | 3.2 | 0.00 | 0.00 | 0.00 | 42 | 1005.4 |
| 20260902202600 | 20 | 166 | 3.2 | 3.2 | 0.00 | 0.00 | 0.00 | 42 | 1005.6 |
| 20260902202056 | 21 | 217 | 1.6 | 3.2 | 0.00 | 0.00 | 0.00 | 41 | 1005.6 |
| 20260902201551 | 21 | 183 | 6.4 | 6.4 | 0.00 | 0.00 | 0.00 | 41 | 1005.7 |
| 20260902201045 | 21 | 150 | 9.7 | 12.9 | 0.00 | 0.00 | 0.00 | 40 | 1005.7 |
| 20260902200540 | 22 | 142 | 0.0 | 1.6 | 0.00 | 0.00 | 0.00 | 39 | 1005.7 |
| 20260902200037 | 21 | 181 | 6.4 | 6.4 | 0.00 | 0.00 | 0.00 | 39 | 1005.5 |
| 20260902195532 | 22 | 144 | 3.2 | 3.2 | 0.00 | 0.00 | 0.00 | 40 | 1005.7 |
| 20260902195030 | 22 | 139 | 8.0 | 14.5 | 0.00 | 0.00 | 0.00 | 39 | 1005.9 |
| 20260902194524 | 21 | 147 | 1.6 | 3.2 | 0.00 | 0.00 | 0.00 | 40 | 1005.9 |
| 20260902194020 | 22 | 137 | 6.4 | 6.4 | 0.00 | 0.00 | 0.00 | 39 | 1006.2 |
| 20260902193515 | 21 | 129 | 8.0 | 11.3 | 0.00 | 0.00 | 0.00 | 40 | 1006.0 |
| 20260902193015 | 23 | 180 | 19.3 | 25.7 | 0.00 | 0.00 | 0.00 | 37 | 1006.2 |
| 20260902192514 | 22 | 129 | 6.4 | 6.4 | 0.00 | 0.00 | 0.00 | 38 | 1005.8 |
| 20260902192013 | 22 | 141 | 3.2 | 3.2 | 0.00 | 0.00 | 0.00 | 39 | 1006.1 |
| 20260902191509 | 22 | 130 | 1.6 | 1.6 | 0.00 | 0.00 | 0.00 | 40 | 1006.1 |
| 20260902191003 | 22 | 190 | 8.0 | 11.3 | 0.00 | 0.00 | 0.00 | 40 | 1006.2 |
| 20260902190458 | 21 | 185 | 8.0 | 11.3 | 0.00 | 0.00 | 0.00 | 41 | 1006.4 |
| 20260902185954 | 20 | 133 | 3.2 | 3.2 | 0.00 | 0.00 | 0.00 | 44 | 1006.2 |
| 20260902185449 | 21 | 177 | 8.0 | 11.3 | 0.00 | 0.00 | 0.00 | 43 | 1006.1 |
| 20260902184944 | 21 | 139 | 4.8 | 4.8 | 0.00 | 0.00 | 0.00 | 42 | 1006.4 |
| 20260902184439 | 22 | 183 | 4.8 | 4.8 | 0.00 | 0.00 | 0.00 | 43 | 1006.6 |
| 20260902183935 | 21 | 148 | 1.6 | 3.2 | 0.00 | 0.00 | 0.00 | 43 | 1006.7 |
| 20260902183431 | 21 | 137 | 4.8 | 4.8 | 0.00 | 0.00 | 0.00 | 43 | 1006.5 |
| 20260902182927 | 21 | 177 | 6.4 | 9.7 | 0.00 | 0.00 | 0.00 | 44 | 1006.5 |
| 20260902182423 | 21 | 55 | 1.6 | 4.8 | 0.00 | 0.00 | 0.00 | 43 | 1006.5 |
| 20260902181919 | 21 | 146 | 3.2 | 4.8 | 0.00 | 0.00 | 0.00 | 43 | 1006.8 |
| 20260902181414 | 21 | 145 | 3.2 | 6.4 | 0.00 | 0.00 | 0.00 | 44 | 1006.8 |
| 20260902180909 | 20 | 135 | 0.0 | 0.0 | 0.00 | 0.00 | 0.00 | 43 | 1006.9 |
| 20260902180405 | 20 | 119 | 1.6 | 6.4 | 0.00 | 0.00 | 0.00 | 44 | 1007.0 |
| 20260902175900 | 20 | 131 | 1.6 | 3.2 | 0.00 | 0.00 | 0.00 | 45 | 1007.2 |
| 20260902175355 | 20 | 172 | 4.8 | 4.8 | 0.00 | 0.00 | 0.00 | 45 | 1006.9 |
| 20260902174850 | 20 | 96 | 3.2 | 3.2 | 0.00 | 0.00 | 0.00 | 46 | 1007.2 |
| 20260902174347 | 19 | 134 | 0.0 | 1.6 | 0.00 | 0.00 | 0.00 | 47 | 1007.2 |
| 20260902173837 | 19 | 142 | 3.2 | 4.8 | 0.00 | 0.00 | 0.00 | 47 | 1007.3 |
| 20260902173336 | 19 | 145 | 3.2 | 3.2 | 0.00 | 0.00 | 0.00 | 47 | 1007.4 |
| 20260902172831 | 19 | 103 | 1.6 | 1.6 | 0.00 | 0.00 | 0.00 | 47 | 1007.2 |
| 20260902172331 | 18 | 135 | 1.6 | 1.6 | 0.00 | 0.00 | 0.00 | 48 | 1007.4 |
| 20260902171825 | 19 | 123 | 1.6 | 3.2 | 0.00 | 0.00 | 0.00 | 48 | 1007.5 |
| 20260902171320 | 18 | 131 | 3.2 | 4.8 | 0.00 | 0.00 | 0.00 | 48 | 1007.4 |
| 20260902170812 | 18 | 132 | 1.6 | 1.6 | 0.00 | 0.00 | 0.00 | 48 | 1007.5 |
| 20260902170307 | 18 | 123 | 1.6 | 3.2 | 0.00 | 0.00 | 0.00 | 50 | 1007.5 |
| 20260902165802 | 18 | 92 | 3.2 | 3.2 | 0.00 | 0.00 | 0.00 | 51 | 1007.5 |
| 20260902165256 | 17 | 144 | 1.6 | 1.6 | 0.00 | 0.00 | 0.00 | 51 | 1007.5 |
| 20260902164750 | 17 | 121 | 1.6 | 1.6 | 0.00 | 0.00 | 0.00 | 52 | 1007.7 |
| 20260902164244 | 17 | 89 | 4.8 | 6.4 | 0.00 | 0.00 | 0.00 | 52 | 1007.5 |
| 20260902163739 | 17 | 98 | 6.4 | 6.4 | 0.00 | 0.00 | 0.00 | 52 | 1007.7 |
| 20260902163233 | 17 | 130 | 3.2 | 3.2 | 0.00 | 0.00 | 0.00 | 53 | 1007.7 |
| 20260902162732 | 17 | 129 | 1.6 | 3.2 | 0.00 | 0.00 | 0.00 | 53 | 1007.5 |
| 20260902162227 | 17 | 83 | 1.6 | 3.2 | 0.00 | 0.00 | 0.00 | 50 | 1007.5 |
| 20260902161722 | 17 | 137 | 1.6 | 3.2 | 0.00 | 0.00 | 0.00 | 51 | 1007.4 |
| 20260902161218 | 17 | 141 | 1.6 | 3.2 | 0.00 | 0.00 | 0.00 | 50 | 1007.3 |
| 20260902160714 | 16 | 126 | 0.0 | 0.0 | 0.00 | 0.00 | 0.00 | 53 | 1007.4 |
| 20260902160208 | 16 | 134 | 0.0 | 0.0 | 0.00 | 0.00 | 0.00 | 55 | 1007.3 |
| 20260902155707 | 16 | 126 | 1.6 | 3.2 | 0.00 | 0.00 | 0.00 | 55 | 1007.2 |
| 20260902155205 | 16 | 103 | 1.6 | 1.6 | 0.00 | 0.00 | 0.00 | 55 | 1007.1 |
| 20260902154701 | 15 | 84 | 3.2 | 4.8 | 0.00 | 0.00 | 0.00 | 57 | 1007.4 |
| 20260902154200 | 15 | 95 | 3.2 | 3.2 | 0.00 | 0.00 | 0.00 | 58 | 1007.3 |
| 20260902153655 | 15 | 77 | 3.2 | 3.2 | 0.00 | 0.00 | 0.00 | 58 | 1007.1 |
| 20260902153150 | 15 | 129 | 0.0 | 1.6 | 0.00 | 0.00 | 0.00 | 58 | 1007.5 |
| 20260902152646 | 15 | 309 | 1.6 | 3.2 | 0.00 | 0.00 | 0.00 | 59 | 1007.3 |
| 20260902152141 | 15 | 356 | 3.2 | 3.2 | 0.00 | 0.00 | 0.00 | 59 | 1007.3 |
| 20260902151636 | 15 | 142 | 1.6 | 1.6 | 0.00 | 0.00 | 0.00 | 58 | 1007.4 |
| 20260902151131 | 15 | 162 | 1.6 | 1.6 | 0.00 | 0.00 | 0.00 | 59 | 1007.3 |
| 20260902150626 | 15 | 129 | 3.2 | 4.8 | 0.00 | 0.00 | 0.00 | 59 | 1007.4 |
| 20260902150121 | 14 | 318 | 4.8 | 4.8 | 0.00 | 0.00 | 0.00 | 60 | 1007.7 |
| 20260902145616 | 13 | 95 | 3.2 | 3.2 | 0.00 | 0.00 | 0.00 | 62 | 1007.9 |
| 20260902145115 | 13 | 187 | 0.0 | 0.0 | 0.00 | 0.00 | 0.00 | 67 | 1007.8 |
| 20260902144613 | 13 | 115 | 1.6 | 1.6 | 0.00 | 0.00 | 0.00 | 64 | 1007.2 |
| 20260902144112 | 12 | 136 | 0.0 | 0.0 | 0.00 | 0.00 | 0.00 | 66 | 1007.3 |
| 20260902143607 | 12 | 144 | 0.0 | 0.0 | 0.00 | 0.00 | 0.00 | 68 | 1007.3 |
| 20260902143103 | 12 | 353 | 1.6 | 3.2 | 0.00 | 0.00 | 0.00 | 70 | 1007.1 |
| 20260902142558 | 12 | 151 | 1.6 | 3.2 | 0.00 | 0.00 | 0.00 | 72 | 1007.0 |
| 20260902142054 | 12 | 137 | 0.0 | 0.0 | 0.00 | 0.00 | 0.00 | 72 | 1007.3 |
| 20260902141548 | 12 | 115 | 1.6 | 1.6 | 0.00 | 0.00 | 0.00 | 72 | 1007.3 |
| 20260902141043 | 12 | 150 | 1.6 | 1.6 | 0.00 | 0.00 | 0.00 | 71 | 1007.2 |
| 20260902140538 | 12 | 170 | 6.4 | 6.4 | 0.00 | 0.00 | 0.00 | 71 | 1007.4 |
| 20260902140034 | 12 | 153 | 1.6 | 1.6 | 0.00 | 0.00 | 0.00 | 72 | 1007.3 |
| 20260902135533 | 12 | 141 | 1.6 | 1.6 | 0.00 | 0.00 | 0.00 | 72 | 1007.1 |
| 20260902135028 | 12 | 125 | 0.0 | 0.0 | 0.00 | 0.00 | 0.00 | 71 | 1007.0 |
| 20260902134523 | 12 | 144 | 0.0 | 0.0 | 0.00 | 0.00 | 0.00 | 70 | 1007.3 |
| 20260902134018 | 12 | 144 | 0.0 | 0.0 | 0.00 | 0.00 | 0.00 | 70 | 1007.3 |
| 20260902133513 | 12 | 120 | 0.0 | 0.0 | 0.00 | 0.00 | 0.00 | 70 | 1007.3 |
| 20260902133012 | 12 | 94 | 1.6 | 1.6 | 0.00 | 0.00 | 0.00 | 69 | 1007.5 |
| 20260902132508 | 12 | 146 | 0.0 | 1.6 | 0.00 | 0.00 | 0.00 | 69 | 1007.7 |
| 20260902132003 | 12 | 103 | 1.6 | 1.6 | 0.00 | 0.00 | 0.00 | 69 | 1008.0 |
| 20260902131459 | 12 | 147 | 0.0 | 0.0 | 0.00 | 0.00 | 0.00 | 69 | 1007.9 |
| 20260902130958 | 12 | 236 | 3.2 | 3.2 | 0.00 | 0.00 | 0.00 | 70 | 1008.2 |
| 20260902130454 | 11 | 129 | 3.2 | 3.2 | 0.00 | 0.00 | 0.00 | 71 | 1007.7 |
| 20260902125949 | 11 | 150 | 3.2 | 3.2 | 0.00 | 0.00 | 0.00 | 72 | 1007.5 |
| 20260902125446 | 11 | 114 | 1.6 | 1.6 | 0.00 | 0.00 | 0.00 | 72 | 1007.7 |
| 20260902124941 | 12 | 141 | 0.0 | 1.6 | 0.00 | 0.00 | 0.00 | 71 | 1008.0 |
| 20260902124437 | 12 | 162 | 1.6 | 1.6 | 0.00 | 0.00 | 0.00 | 71 | 1007.9 |
| 20260902123932 | 12 | 147 | 0.0 | 0.0 | 0.00 | 0.00 | 0.00 | 70 | 1007.8 |
| 20260902123429 | 12 | 148 | 0.0 | 0.0 | 0.00 | 0.00 | 0.00 | 70 | 1007.5 |
| 20260902122926 | 12 | 125 | 0.0 | 0.0 | 0.00 | 0.00 | 0.00 | 70 | 1007.3 |
| 20260902122423 | 12 | 73 | 1.6 | 3.2 | 0.00 | 0.00 | 0.00 | 70 | 1007.3 |
| 20260902121918 | 12 | 99 | 1.6 | 1.6 | 0.00 | 0.00 | 0.00 | 69 | 1007.7 |
| 20260902121412 | 12 | 144 | 0.0 | 0.0 | 0.00 | 0.00 | 0.00 | 70 | 1007.8 |
| 20260902120908 | 12 | 153 | 0.0 | 0.0 | 0.00 | 0.00 | 0.00 | 69 | 1007.4 |
| 20260902120404 | 12 | 145 | 1.6 | 1.6 | 0.00 | 0.00 | 0.00 | 69 | 1007.4 |
| 20260902115904 | 12 | 173 | 3.2 | 3.2 | 0.00 | 0.00 | 0.00 | 69 | 1007.4 |
| 20260902115400 | 12 | 165 | 3.2 | 3.2 | 0.00 | 0.00 | 0.00 | 69 | 1007.2 |
| 20260902114856 | 12 | 146 | 0.0 | 0.0 | 0.00 | 0.00 | 0.00 | 69 | 1007.3 |
| 20260902114351 | 12 | 157 | 0.0 | 0.0 | 0.00 | 0.00 | 0.00 | 69 | 1006.8 |
| 20260902113846 | 12 | 141 | 0.0 | 0.0 | 0.00 | 0.00 | 0.00 | 68 | 1006.9 |
| 20260902113342 | 12 | 156 | 1.6 | 1.6 | 0.00 | 0.00 | 0.00 | 67 | 1006.9 |
| 20260902112841 | 12 | 140 | 0.0 | 1.6 | 0.00 | 0.00 | 0.00 | 67 | 1007.0 |
| 20260902112338 | 12 | 150 | 3.2 | 3.2 | 0.00 | 0.00 | 0.00 | 67 | 1007.1 |
| 20260902111833 | 12 | 153 | 1.6 | 1.6 | 0.00 | 0.00 | 0.00 | 67 | 1007.1 |
| 20260902111329 | 12 | 162 | 0.0 | 0.0 | 0.00 | 0.00 | 0.00 | 67 | 1007.3 |
| 20260902110824 | 12 | 142 | 0.0 | 1.6 | 0.00 | 0.00 | 0.00 | 67 | 1007.2 |
| 20260902110320 | 13 | 126 | 1.6 | 1.6 | 0.00 | 0.00 | 0.00 | 67 | 1007.7 |
| 20260902105820 | 13 | 150 | 3.2 | 3.2 | 0.00 | 0.00 | 0.00 | 66 | 1007.3 |
| 20260902105315 | 13 | 142 | 0.0 | 0.0 | 0.00 | 0.00 | 0.00 | 66 | 1007.1 |
| 20260902104810 | 13 | 142 | 0.0 | 0.0 | 0.00 | 0.00 | 0.00 | 66 | 1007.2 |
| 20260902104306 | 13 | 141 | 0.0 | 0.0 | 0.00 | 0.00 | 0.00 | 66 | 1007.3 |
| 20260902103806 | 13 | 156 | 1.6 | 3.2 | 0.00 | 0.00 | 0.00 | 65 | 1007.5 |
| 20260902103301 | 13 | 125 | 0.0 | 0.0 | 0.00 | 0.00 | 0.00 | 65 | 1007.0 |
| 20260902102756 | 13 | 137 | 0.0 | 0.0 | 0.00 | 0.00 | 0.00 | 65 | 1007.0 |
| 20260902102254 | 13 | 62 | 1.6 | 3.2 | 0.00 | 0.00 | 0.00 | 66 | 1007.1 |
| 20260902101749 | 13 | 135 | 0.0 | 0.0 | 0.00 | 0.00 | 0.00 | 65 | 1007.3 |
| 20260902101244 | 13 | 125 | 0.0 | 0.0 | 0.00 | 0.00 | 0.00 | 65 | 1007.1 |
| 20260902100743 | 13 | 145 | 0.0 | 0.0 | 0.00 | 0.00 | 0.00 | 65 | 1007.0 |
| 20260902100237 | 13 | 131 | 0.0 | 0.0 | 0.00 | 0.00 | 0.00 | 64 | 1007.0 |
| 20260902095731 | 13 | 115 | 0.0 | 0.0 | 0.00 | 0.00 | 0.00 | 63 | 1006.7 |
| 20260902095226 | 13 | 95 | 1.6 | 1.6 | 0.00 | 0.00 | 0.00 | 63 | 1006.9 |
| 20260902094721 | 13 | 109 | 1.6 | 3.2 | 0.00 | 0.00 | 0.00 | 64 | 1007.0 |
| 20260902094217 | 12 | 357 | 1.6 | 3.2 | 0.00 | 0.00 | 0.00 | 66 | 1007.0 |
| 20260902093715 | 12 | 112 | 1.6 | 1.6 | 0.00 | 0.00 | 0.00 | 66 | 1006.9 |
| 20260902093211 | 12 | 118 | 0.0 | 0.0 | 0.00 | 0.00 | 0.00 | 65 | 1006.8 |
| 20260902092706 | 12 | 132 | 0.0 | 0.0 | 0.00 | 0.00 | 0.00 | 65 | 1007.1 |
| 20260902092201 | 12 | 115 | 0.0 | 0.0 | 0.00 | 0.00 | 0.00 | 65 | 1007.0 |
| 20260902091655 | 12 | 133 | 0.0 | 0.0 | 0.00 | 0.00 | 0.00 | 65 | 1007.0 |
| 20260902091152 | 13 | 129 | 0.0 | 0.0 | 0.00 | 0.00 | 0.00 | 63 | 1006.9 |
| 20260902090647 | 13 | 148 | 0.0 | 0.0 | 0.00 | 0.00 | 0.00 | 62 | 1007.0 |
| 20260902090147 | 14 | 132 | 0.0 | 0.0 | 0.00 | 0.00 | 0.00 | 61 | 1007.0 |
| 20260902085641 | 15 | 115 | 0.0 | 0.0 | 0.00 | 0.00 | 0.00 | 59 | 1007.1 |
| 20260902085142 | 14 | 117 | 1.6 | 3.2 | 0.00 | 0.00 | 0.00 | 59 | 1007.3 |
| 20260902084638 | 15 | 116 | 0.0 | 0.0 | 0.00 | 0.00 | 0.00 | 58 | 1007.2 |
| 20260902084134 | 15 | 310 | 1.6 | 1.6 | 0.00 | 0.00 | 0.00 | 56 | 1007.2 |
| 20260902083628 | 16 | 281 | 4.8 | 6.4 | 0.00 | 0.00 | 0.00 | 56 | 1007.0 |
| 20260902083127 | 15 | 269 | 11.3 | 16.1 | 0.00 | 0.00 | 0.00 | 56 | 1006.9 |
| 20260902082623 | 15 | 222 | 6.4 | 11.3 | 0.00 | 0.00 | 0.00 | 57 | 1006.9 |
| 20260902082120 | 15 | 131 | 0.0 | 0.0 | 0.00 | 0.00 | 0.00 | 56 | 1006.9 |
| 20260902081616 | 15 | 113 | 0.0 | 1.6 | 0.00 | 0.00 | 0.00 | 55 | 1006.9 |
| 20260902081116 | 16 | 149 | 1.6 | 1.6 | 0.00 | 0.00 | 0.00 | 55 | 1006.9 |
| 20260902080611 | 16 | 240 | 4.8 | 4.8 | 0.00 | 0.00 | 0.00 | 54 | 1006.8 |
| 20260902080108 | 16 | 209 | 4.8 | 6.4 | 0.00 | 0.00 | 0.00 | 54 | 1006.8 |
| 20260902075607 | 16 | 306 | 12.9 | 16.1 | 0.00 | 0.00 | 0.00 | 54 | 1007.0 |
| 20260902075103 | 16 | 250 | 9.7 | 11.3 | 0.00 | 0.00 | 0.00 | 52 | 1006.9 |
| 20260902074559 | 17 | 186 | 3.2 | 3.2 | 0.00 | 0.00 | 0.00 | 51 | 1007.0 |
| 20260902074054 | 16 | 209 | 4.8 | 4.8 | 0.00 | 0.00 | 0.00 | 52 | 1006.9 |
| 20260902073549 | 15 | 138 | 0.0 | 1.6 | 0.00 | 0.00 | 0.00 | 53 | 1006.9 |
| 20260902073046 | 14 | 153 | 1.6 | 1.6 | 0.00 | 0.00 | 0.00 | 54 | 1006.8 |
| 20260902072541 | 13 | 147 | 0.0 | 0.0 | 0.00 | 0.00 | 0.00 | 59 | 1006.9 |
| 20260902072038 | 13 | 151 | 0.0 | 0.0 | 0.00 | 0.00 | 0.00 | 58 | 1006.4 |
| 20260902071537 | 14 | 151 | 0.0 | 0.0 | 0.00 | 0.00 | 0.00 | 58 | 1006.6 |
| 20260902071034 | 14 | 102 | 0.0 | 0.0 | 0.00 | 0.00 | 0.00 | 58 | 1006.6 |
| 20260902070529 | 15 | 132 | 0.0 | 0.0 | 0.00 | 0.00 | 0.00 | 56 | 1006.2 |
| 20260902070023 | 15 | 141 | 0.0 | 0.0 | 0.00 | 0.00 | 0.00 | 55 | 1006.5 |
| 20260902065517 | 15 | 145 | 0.0 | 0.0 | 0.00 | 0.00 | 0.00 | 54 | 1006.6 |
| 20260902065013 | 15 | 169 | 0.0 | 0.0 | 0.00 | 0.00 | 0.00 | 54 | 1006.6 |
| 20260902064509 | 15 | 142 | 0.0 | 0.0 | 0.00 | 0.00 | 0.00 | 54 | 1006.4 |
| 20260902064004 | 15 | 140 | 1.6 | 1.6 | 0.00 | 0.00 | 0.00 | 55 | 1006.6 |
| 20260902063503 | 16 | 136 | 0.0 | 0.0 | 0.00 | 0.00 | 0.00 | 52 | 1006.6 |
| 20260902062958 | 16 | 120 | 0.0 | 0.0 | 0.00 | 0.00 | 0.00 | 52 | 1006.8 |
| 20260902062457 | 16 | 141 | 3.2 | 3.2 | 0.00 | 0.00 | 0.00 | 47 | 1006.7 |
| 20260902061952 | 16 | 148 | 0.0 | 1.6 | 0.00 | 0.00 | 0.00 | 55 | 1006.6 |
| 20260902061442 | 15 | 102 | 0.0 | 1.6 | 0.00 | 0.00 | 0.00 | 59 | 1006.2 |
| 20260902060938 | 15 | 137 | 0.0 | 0.0 | 0.00 | 0.00 | 0.00 | 59 | 1006.6 |
| 20260902060434 | 15 | 148 | 0.0 | 0.0 | 0.00 | 0.00 | 0.00 | 59 | 1006.6 |
| 20260902055930 | 15 | 133 | 0.0 | 0.0 | 0.00 | 0.00 | 0.00 | 59 | 1006.4 |
| 20260902055426 | 15 | 95 | 1.6 | 1.6 | 0.00 | 0.00 | 0.00 | 58 | 1006.4 |
| 20260902054921 | 15 | 145 | 0.0 | 0.0 | 0.00 | 0.00 | 0.00 | 58 | 1006.1 |
| 20260902054416 | 15 | 170 | 0.0 | 1.6 | 0.00 | 0.00 | 0.00 | 58 | 1006.0 |
| 20260902053911 | 15 | 162 | 0.0 | 0.0 | 0.00 | 0.00 | 0.00 | 57 | 1006.2 |
| 20260902053407 | 16 | 133 | 0.0 | 0.0 | 0.00 | 0.00 | 0.00 | 56 | 1006.2 |
| 20260902052905 | 16 | 108 | 1.6 | 1.6 | 0.00 | 0.00 | 0.00 | 55 | 1006.2 |
| 20260902052401 | 17 | 94 | 0.0 | 1.6 | 0.00 | 0.00 | 0.00 | 50 | 1006.0 |
| 20260902051855 | 19 | 154 | 3.2 | 3.2 | 0.00 | 0.00 | 0.00 | 43 | 1006.2 |
| 20260902051350 | 17 | 213 | 6.4 | 6.4 | 0.00 | 0.00 | 0.00 | 48 | 1006.1 |
| 20260902050849 | 16 | 85 | 1.6 | 1.6 | 0.00 | 0.00 | 0.00 | 55 | 1006.4 |